Time,TemperatureF,DewpointF,PressureIn,WindDirection,WindDirectionDegrees,WindSpeedMPH,WindSpeedGustMPH,Humidity,HourlyPrecipIn,Conditions,Clouds,dailyrainin,SolarRadiationWatts/m^2,SoftwareType,DateUTC
2013-05-25 00:01:00,52.6,42.0,30.20,North,360,0.0,0.0,67,0.00,,,0.00,0.00,VWS V14.01,2013-05-25 04:01:00,
2013-05-25 00:06:00,52.3,42.5,30.20,North,360,0.0,0.0,69,0.00,,,0.00,0.00,VWS V14.01,2013-05-25 04:06:00,
2013-05-25 00:11:00,51.9,42.4,30.19,North,360,0.0,0.0,70,0.00,,,0.00,0.00,VWS V14.01,2013-05-25 04:11:00,
2013-05-25 00:16:00,51.5,43.1,30.19,North,360,0.0,0.0,73,0.00,,,0.00,0.00,VWS V14.01,2013-05-25 04:16:00,
2013-05-25 00:21:00,51.0,42.3,30.19,North,360,0.0,0.0,72,0.00,,,0.00,0.00,VWS V14.01,2013-05-25 04:21:00,
2013-05-25 00:26:00,50.7,41.7,30.19,North,360,0.0,0.0,71,0.00,,,0.00,0.00,VWS V14.01,2013-05-25 04:26:00,
2013-05-25 00:31:00,50.3,41.6,30.19,North,360,0.0,0.0,72,0.00,,,0.00,0.00,VWS V14.01,2013-05-25 04:31:00,
2013-05-25 00:36:00,50.1,41.1,30.19,North,360,0.0,0.0,71,0.00,,,0.00,0.00,VWS V14.01,2013-05-25 04:36:00,
2013-05-25 00:41:00,49.9,41.2,30.19,North,360,0.0,0.0,72,0.00,,,0.00,0.00,VWS V14.01,2013-05-25 04:41:00,
2013-05-25 00:46:00,49.7,41.0,30.19,North,360,0.0,0.0,72,0.00,,,0.00,0.00,VWS V14.01,2013-05-25 04:46:00,
2013-05-25 00:51:00,49.6,41.3,30.19,North,360,0.0,0.0,73,0.00,,,0.00,0.00,VWS V14.01,2013-05-25 04:51:00,
2013-05-25 00:56:00,49.4,41.5,30.19,North,360,0.0,0.0,74,0.00,,,0.00,0.00,VWS V14.01,2013-05-25 04:56:00,
2013-05-25 01:01:00,49.3,40.7,30.19,North,360,0.0,0.0,72,0.00,,,0.00,0.00,VWS V14.01,2013-05-25 05:01:00,
2013-05-25 01:06:00,49.1,40.8,30.20,North,360,0.0,0.0,73,0.00,,,0.00,0.00,VWS V14.01,2013-05-25 05:06:00,
2013-05-25 01:11:00,49.0,41.1,30.20,North,360,0.0,0.0,74,0.00,,,0.00,0.00,VWS V14.01,2013-05-25 05:11:00,
2013-05-25 01:16:00,49.0,41.1,30.19,North,360,0.0,0.0,74,0.00,,,0.00,0.00,VWS V14.01,2013-05-25 05:16:00,
2013-05-25 01:21:00,48.9,41.3,30.19,North,360,0.0,0.0,75,0.00,,,0.00,0.00,VWS V14.01,2013-05-25 05:21:00,
2013-05-25 01:26:00,48.8,41.2,30.19,North,360,0.0,1.0,75,0.00,,,0.00,0.00,VWS V14.01,2013-05-25 05:26:00,
2013-05-25 01:31:00,48.8,41.9,30.20,North,360,0.0,0.0,77,0.00,,,0.00,0.00,VWS V14.01,2013-05-25 05:31:00,
2013-05-25 01:36:00,48.7,42.2,30.19,North,360,0.0,0.0,78,0.00,,,0.00,0.00,VWS V14.01,2013-05-25 05:36:00,
2013-05-25 01:41:00,48.6,42.1,30.20,North,360,0.0,0.0,78,0.00,,,0.00,0.00,VWS V14.01,2013-05-25 05:41:00,
2013-05-25 01:46:00,48.5,41.6,30.20,North,360,0.0,0.0,77,0.00,,,0.00,0.00,VWS V14.01,2013-05-25 05:46:00,
2013-05-25 01:51:00,48.3,41.8,30.19,North,360,0.0,0.0,78,0.00,,,0.00,0.00,VWS V14.01,2013-05-25 05:51:00,
2013-05-25 01:56:00,48.2,41.7,30.20,North,360,0.0,0.0,78,0.00,,,0.00,0.00,VWS V14.01,2013-05-25 05:56:00,
2013-05-25 02:01:00,48.1,41.9,30.20,North,360,0.0,0.0,79,0.00,,,0.00,0.00,VWS V14.01,2013-05-25 06:01:00,
2013-05-25 02:06:00,48.0,42.1,30.20,North,360,0.0,0.0,80,0.00,,,0.00,0.00,VWS V14.01,2013-05-25 06:06:00,
2013-05-25 02:11:00,47.8,42.3,30.19,North,360,0.0,0.0,81,0.00,,,0.00,0.00,VWS V14.01,2013-05-25 06:11:00,
2013-05-25 02:16:00,47.6,42.4,30.19,North,360,0.0,0.0,82,0.00,,,0.00,0.00,VWS V14.01,2013-05-25 06:16:00,
2013-05-25 02:21:00,47.4,42.2,30.20,North,360,0.0,0.0,82,0.00,,,0.00,0.00,VWS V14.01,2013-05-25 06:21:00,
2013-05-25 02:26:00,47.2,42.0,30.20,North,360,0.0,0.0,82,0.00,,,0.00,0.00,VWS V14.01,2013-05-25 06:26:00,
2013-05-25 02:31:00,47.0,42.1,30.20,North,360,0.0,0.0,83,0.00,,,0.00,0.00,VWS V14.01,2013-05-25 06:31:00,
2013-05-25 02:36:00,46.9,42.0,30.20,North,360,0.0,0.0,83,0.00,,,0.00,0.00,VWS V14.01,2013-05-25 06:36:00,
2013-05-25 02:41:00,46.8,41.9,30.20,North,360,0.0,0.0,83,0.00,,,0.00,0.00,VWS V14.01,2013-05-25 06:41:00,
2013-05-25 02:45:00,46.6,41.7,30.20,North,360,0.0,0.0,83,0.00,,,0.00,0.00,VWS V14.01,2013-05-25 06:45:00,
2013-05-25 02:50:00,46.5,41.9,30.20,North,360,0.0,0.0,84,0.00,,,0.00,0.00,VWS V14.01,2013-05-25 06:50:00,
2013-05-25 02:55:00,46.3,42.0,30.20,North,360,0.0,1.0,85,0.00,,,0.00,0.00,VWS V14.01,2013-05-25 06:55:00,
2013-05-25 03:00:00,46.1,42.2,30.20,North,360,0.0,0.0,86,0.00,,,0.00,0.00,VWS V14.01,2013-05-25 07:00:00,
2013-05-25 03:05:00,45.9,42.0,30.20,North,360,0.0,0.0,86,0.00,,,0.00,0.00,VWS V14.01,2013-05-25 07:05:00,
2013-05-25 03:10:00,45.8,41.9,30.20,North,360,0.0,0.0,86,0.00,,,0.00,0.00,VWS V14.01,2013-05-25 07:10:00,
2013-05-25 03:15:00,45.7,41.8,30.20,North,360,0.0,0.0,86,0.00,,,0.00,0.00,VWS V14.01,2013-05-25 07:15:00,
2013-05-25 03:20:00,45.5,41.9,30.20,North,360,0.0,0.0,87,0.00,,,0.00,0.00,VWS V14.01,2013-05-25 07:20:00,
2013-05-25 03:25:00,45.4,41.8,30.20,North,360,0.0,0.0,87,0.00,,,0.00,0.00,VWS V14.01,2013-05-25 07:25:00,
2013-05-25 03:30:00,45.3,41.7,30.19,North,360,0.0,0.0,87,0.00,,,0.00,0.00,VWS V14.01,2013-05-25 07:30:00,
2013-05-25 03:35:00,45.1,41.5,30.19,North,360,0.0,0.0,87,0.00,,,0.00,0.00,VWS V14.01,2013-05-25 07:35:00,
2013-05-25 03:40:00,45.0,41.7,30.20,North,360,0.0,0.0,88,0.00,,,0.00,0.00,VWS V14.01,2013-05-25 07:40:00,
2013-05-25 03:45:00,44.9,41.3,30.20,North,360,0.0,0.0,87,0.00,,,0.00,0.00,VWS V14.01,2013-05-25 07:45:00,
2013-05-25 03:50:00,44.7,41.1,30.20,North,360,0.0,0.0,87,0.00,,,0.00,0.00,VWS V14.01,2013-05-25 07:50:00,
2013-05-25 03:55:00,44.6,41.3,30.20,North,360,0.0,0.0,88,0.00,,,0.00,0.00,VWS V14.01,2013-05-25 07:55:00,
2013-05-25 04:00:00,44.5,41.2,30.20,North,360,0.0,0.0,88,0.00,,,0.00,0.00,VWS V14.01,2013-05-25 08:00:00,
2013-05-25 04:05:00,44.4,41.1,30.20,North,360,0.0,0.0,88,0.00,,,0.00,0.00,VWS V14.01,2013-05-25 08:05:00,
2013-05-25 04:10:00,44.3,41.0,30.20,North,360,0.0,0.0,88,0.00,,,0.00,0.00,VWS V14.01,2013-05-25 08:10:00,
2013-05-25 04:15:00,44.1,40.8,30.20,North,360,0.0,0.0,88,0.00,,,0.00,0.00,VWS V14.01,2013-05-25 08:15:00,
2013-05-25 04:20:00,44.0,41.0,30.20,North,360,0.0,0.0,89,0.00,,,0.00,0.00,VWS V14.01,2013-05-25 08:20:00,
2013-05-25 04:25:00,43.8,40.8,30.21,North,360,0.0,0.0,89,0.00,,,0.00,0.00,VWS V14.01,2013-05-25 08:25:00,
2013-05-25 04:30:00,43.7,40.7,30.21,North,360,0.0,0.0,89,0.00,,,0.00,0.00,VWS V14.01,2013-05-25 08:30:00,
2013-05-25 04:35:00,43.6,40.6,30.21,North,360,0.0,0.0,89,0.00,,,0.00,0.00,VWS V14.01,2013-05-25 08:35:00,
2013-05-25 04:40:00,43.5,40.5,30.21,North,360,0.0,0.0,89,0.00,,,0.00,0.00,VWS V14.01,2013-05-25 08:40:00,
2013-05-25 04:45:00,43.4,40.4,30.21,North,360,0.0,0.0,89,0.00,,,0.00,0.00,VWS V14.01,2013-05-25 08:45:00,
2013-05-25 04:50:00,43.3,40.6,30.22,North,360,0.0,0.0,90,0.00,,,0.00,0.00,VWS V14.01,2013-05-25 08:50:00,
2013-05-25 04:55:00,43.2,40.5,30.21,North,360,0.0,0.0,90,0.00,,,0.00,0.00,VWS V14.01,2013-05-25 08:55:00,
2013-05-25 05:00:00,43.1,40.7,30.22,North,360,0.0,0.0,91,0.00,,,0.00,0.00,VWS V14.01,2013-05-25 09:00:00,
2013-05-25 05:05:00,43.0,40.6,30.22,North,360,0.0,0.0,91,0.00,,,0.00,0.00,VWS V14.01,2013-05-25 09:05:00,
2013-05-25 05:10:00,42.9,40.5,30.22,North,360,0.0,0.0,91,0.00,,,0.00,0.00,VWS V14.01,2013-05-25 09:10:00,
2013-05-25 05:15:00,42.8,40.4,30.22,North,360,0.0,0.0,91,0.00,,,0.00,0.00,VWS V14.01,2013-05-25 09:15:00,
2013-05-25 05:20:00,42.7,40.3,30.22,North,360,0.0,0.0,91,0.00,,,0.00,0.00,VWS V14.01,2013-05-25 09:20:00,
2013-05-25 05:25:00,42.7,40.5,30.22,North,360,0.0,0.0,92,0.00,,,0.00,0.00,VWS V14.01,2013-05-25 09:25:00,
2013-05-25 05:30:00,42.6,40.4,30.22,North,360,0.0,0.0,92,0.00,,,0.00,0.00,VWS V14.01,2013-05-25 09:30:00,
2013-05-25 05:35:00,42.5,40.3,30.22,North,360,0.0,0.0,92,0.00,,,0.00,0.00,VWS V14.01,2013-05-25 09:35:00,
2013-05-25 05:40:00,42.4,40.2,30.22,North,360,0.0,0.0,92,0.00,,,0.00,0.00,VWS V14.01,2013-05-25 09:40:00,
2013-05-25 05:45:00,42.3,40.2,30.22,North,360,0.0,0.0,92,0.00,,,0.00,0.00,VWS V14.01,2013-05-25 09:45:00,
2013-05-25 05:50:00,42.3,40.2,30.22,North,360,0.0,0.0,92,0.00,,,0.00,0.00,VWS V14.01,2013-05-25 09:50:00,
2013-05-25 05:55:00,42.2,40.0,30.22,North,360,0.0,0.0,92,0.00,,,0.00,0.00,VWS V14.01,2013-05-25 09:55:00,
2013-05-25 06:00:00,42.1,40.0,30.22,North,360,0.0,1.0,92,0.00,,,0.00,0.00,VWS V14.01,2013-05-25 10:00:00,
2013-05-25 06:05:00,42.0,39.8,30.22,North,360,0.0,0.0,92,0.00,,,0.00,0.00,VWS V14.01,2013-05-25 10:05:00,
2013-05-25 06:10:00,42.0,40.1,30.22,North,360,0.0,0.0,93,0.00,,,0.00,0.00,VWS V14.01,2013-05-25 10:10:00,
2013-05-25 06:15:00,41.9,40.0,30.22,North,360,0.0,0.0,93,0.00,,,0.00,0.00,VWS V14.01,2013-05-25 10:15:00,
2013-05-25 06:20:00,41.8,39.9,30.22,North,360,0.0,0.0,93,0.00,,,0.00,5.00,VWS V14.01,2013-05-25 10:20:00,
2013-05-25 06:25:00,41.7,39.8,30.22,North,360,0.0,0.0,93,0.00,,,0.00,7.00,VWS V14.01,2013-05-25 10:25:00,
2013-05-25 06:30:00,41.6,39.7,30.22,North,360,0.0,0.0,93,0.00,,,0.00,7.00,VWS V14.01,2013-05-25 10:30:00,
2013-05-25 06:35:00,41.6,39.7,30.23,NW,314,0.0,0.0,93,0.00,,,0.00,9.00,VWS V14.01,2013-05-25 10:35:00,
2013-05-25 06:40:00,41.5,39.6,30.23,NW,314,0.0,0.0,93,0.00,,,0.00,11.00,VWS V14.01,2013-05-25 10:40:00,
2013-05-25 06:45:00,41.5,39.6,30.23,NW,314,0.0,0.0,93,0.00,,,0.00,11.00,VWS V14.01,2013-05-25 10:45:00,
2013-05-25 06:50:00,41.4,39.5,30.23,NW,314,0.0,0.0,93,0.00,,,0.00,12.00,VWS V14.01,2013-05-25 10:50:00,
2013-05-25 06:55:00,41.4,39.5,30.23,NW,314,0.0,0.0,93,0.00,,,0.00,14.00,VWS V14.01,2013-05-25 10:55:00,
2013-05-25 07:00:00,41.4,39.8,30.23,NW,314,0.0,0.0,94,0.00,,,0.00,14.00,VWS V14.01,2013-05-25 11:00:00,
2013-05-25 07:05:00,41.5,39.9,30.23,NW,314,0.0,0.0,94,0.00,,,0.00,16.00,VWS V14.01,2013-05-25 11:05:00,
2013-05-25 07:10:00,41.5,39.9,30.24,NW,314,0.0,0.0,94,0.00,,,0.00,18.00,VWS V14.01,2013-05-25 11:10:00,
2013-05-25 07:15:00,41.7,40.1,30.24,NW,314,0.0,0.0,94,0.00,,,0.00,19.00,VWS V14.01,2013-05-25 11:15:00,
2013-05-25 07:20:00,41.8,40.5,30.25,NW,314,0.0,0.0,95,0.00,,,0.00,23.00,VWS V14.01,2013-05-25 11:20:00,
2013-05-25 07:25:00,42.2,40.9,30.25,NW,314,0.0,1.0,95,0.00,,,0.00,28.00,VWS V14.01,2013-05-25 11:25:00,
2013-05-25 07:30:00,42.5,41.2,30.25,NW,314,0.0,0.0,95,0.00,,,0.00,35.00,VWS V14.01,2013-05-25 11:30:00,
2013-05-25 07:35:00,42.8,41.5,30.26,NW,314,0.0,0.0,95,0.00,,,0.00,39.00,VWS V14.01,2013-05-25 11:35:00,
2013-05-25 07:40:00,43.2,42.1,30.26,NW,314,0.0,0.0,96,0.00,,,0.00,46.00,VWS V14.01,2013-05-25 11:40:00,
2013-05-25 07:45:00,43.8,42.7,30.26,NW,314,0.0,0.0,96,0.00,,,0.00,46.00,VWS V14.01,2013-05-25 11:45:00,
2013-05-25 07:50:00,44.3,43.2,30.26,NW,314,0.0,0.0,96,0.00,,,0.00,44.00,VWS V14.01,2013-05-25 11:50:00,
2013-05-25 07:55:00,44.7,43.6,30.26,NNW,334,3.0,3.0,96,0.00,,,0.00,44.00,VWS V14.01,2013-05-25 11:55:00,
2013-05-25 08:00:00,45.4,44.3,30.26,NNW,334,0.0,0.0,96,0.00,,,0.00,46.00,VWS V14.01,2013-05-25 12:00:00,
2013-05-25 08:05:00,46.0,44.7,30.26,NNW,334,0.0,1.0,95,0.00,,,0.00,46.00,VWS V14.01,2013-05-25 12:05:00,
2013-05-25 08:10:00,46.9,43.5,30.25,NNW,334,0.0,1.0,88,0.00,,,0.00,47.00,VWS V14.01,2013-05-25 12:10:00,
2013-05-25 08:15:00,48.7,43.8,30.25,NNE,25,2.0,4.0,83,0.00,,,0.00,44.00,VWS V14.01,2013-05-25 12:15:00,
2013-05-25 08:20:00,49.5,41.9,30.25,North,360,3.0,4.0,75,0.00,,,0.00,47.00,VWS V14.01,2013-05-25 12:20:00,
2013-05-25 08:25:00,50.5,40.7,30.26,North,360,0.0,1.0,69,0.00,,,0.00,47.00,VWS V14.01,2013-05-25 12:25:00,
2013-05-25 08:30:00,51.3,41.1,30.26,North,355,0.0,2.0,68,0.00,,,0.00,56.00,VWS V14.01,2013-05-25 12:30:00,
2013-05-25 08:35:00,51.9,40.1,30.26,NNE,26,0.0,0.0,64,0.00,,,0.00,74.00,VWS V14.01,2013-05-25 12:35:00,
2013-05-25 08:40:00,52.6,40.8,30.26,NE,55,2.0,2.0,64,0.00,,,0.00,79.00,VWS V14.01,2013-05-25 12:40:00,
2013-05-25 08:45:00,53.8,39.4,30.27,NNE,30,1.0,3.0,58,0.00,,,0.00,74.00,VWS V14.01,2013-05-25 12:45:00,
2013-05-25 08:50:00,54.5,38.7,30.27,WNW,288,2.0,3.0,55,0.00,,,0.00,111.00,VWS V14.01,2013-05-25 12:50:00,
2013-05-25 08:55:00,54.9,37.6,30.28,NNW,335,1.0,1.0,52,0.00,,,0.00,81.00,VWS V14.01,2013-05-25 12:55:00,
2013-05-25 09:00:00,55.2,36.9,30.28,WSW,246,5.0,6.0,50,0.00,,,0.00,88.00,VWS V14.01,2013-05-25 13:00:00,
2013-05-25 09:05:00,55.5,37.2,30.29,WSW,251,6.0,6.0,50,0.00,,,0.00,83.00,VWS V14.01,2013-05-25 13:05:00,
2013-05-25 09:10:00,55.9,36.5,30.29,NNE,16,3.0,5.0,48,0.00,,,0.00,104.00,VWS V14.01,2013-05-25 13:10:00,
2013-05-25 09:15:00,56.1,36.7,30.29,NE,34,1.0,2.0,48,0.00,,,0.00,74.00,VWS V14.01,2013-05-25 13:15:00,
2013-05-25 09:20:00,56.4,37.5,30.29,WNW,298,5.0,5.0,49,0.00,,,0.00,77.00,VWS V14.01,2013-05-25 13:20:00,
2013-05-25 09:25:00,56.6,36.6,30.30,West,268,2.0,2.0,47,0.00,,,0.00,100.00,VWS V14.01,2013-05-25 13:25:00,
2013-05-25 09:30:00,56.8,37.3,30.29,SSW,204,1.0,3.0,48,0.00,,,0.00,90.00,VWS V14.01,2013-05-25 13:30:00,
2013-05-25 09:35:00,57.0,37.0,30.29,NNW,342,1.0,2.0,47,0.00,,,0.00,62.00,VWS V14.01,2013-05-25 13:35:00,
2013-05-25 09:40:00,57.2,38.2,30.29,NNE,23,1.0,4.0,49,0.00,,,0.00,56.00,VWS V14.01,2013-05-25 13:40:00,
2013-05-25 09:45:00,57.4,37.3,30.29,SSW,209,3.0,3.0,47,0.00,,,0.00,54.00,VWS V14.01,2013-05-25 13:45:00,
2013-05-25 09:50:00,57.6,38.6,30.29,West,279,0.0,2.0,49,0.00,,,0.00,53.00,VWS V14.01,2013-05-25 13:50:00,
2013-05-25 09:55:00,57.8,37.2,30.28,SW,217,3.0,5.0,46,0.00,,,0.00,54.00,VWS V14.01,2013-05-25 13:55:00,
2013-05-25 10:00:00,58.0,37.9,30.28,North,360,2.0,4.0,47,0.00,,,0.00,54.00,VWS V14.01,2013-05-25 14:00:00,
2013-05-25 10:05:00,58.2,38.1,30.28,ENE,61,2.0,2.0,47,0.00,,,0.00,53.00,VWS V14.01,2013-05-25 14:05:00,
2013-05-25 10:10:00,58.4,37.7,30.28,South,181,3.0,5.0,46,0.00,,,0.00,54.00,VWS V14.01,2013-05-25 14:10:00,
2013-05-25 10:15:00,58.6,37.9,30.28,SW,227,2.0,3.0,46,0.00,,,0.00,56.00,VWS V14.01,2013-05-25 14:15:00,
2013-05-25 10:20:00,58.9,38.2,30.28,SW,236,3.0,3.0,46,0.00,,,0.00,56.00,VWS V14.01,2013-05-25 14:20:00,
2013-05-25 10:25:00,59.2,38.5,30.28,NW,311,2.0,2.0,46,0.00,,,0.00,63.00,VWS V14.01,2013-05-25 14:25:00,
2013-05-25 10:30:00,59.5,38.2,30.28,WSW,253,5.0,5.0,45,0.00,,,0.00,65.00,VWS V14.01,2013-05-25 14:30:00,
2013-05-25 10:35:00,59.9,40.2,30.28,NNW,331,2.0,2.0,48,0.00,,,0.00,72.00,VWS V14.01,2013-05-25 14:35:00,
2013-05-25 10:40:00,60.2,39.4,30.27,ESE,115,0.0,0.0,46,0.00,,,0.00,77.00,VWS V14.01,2013-05-25 14:40:00,
2013-05-25 10:45:00,60.5,39.6,30.28,NNE,30,1.0,1.0,46,0.00,,,0.00,81.00,VWS V14.01,2013-05-25 14:45:00,
2013-05-25 10:50:00,61.1,41.3,30.28,SW,232,2.0,2.0,48,0.00,,,0.00,109.00,VWS V14.01,2013-05-25 14:50:00,
2013-05-25 10:55:00,61.5,40.0,30.28,WNW,298,1.0,2.0,45,0.00,,,0.00,155.00,VWS V14.01,2013-05-25 14:55:00,
2013-05-25 11:00:00,61.9,39.2,30.28,NE,51,0.0,1.0,43,0.00,,,0.00,120.00,VWS V14.01,2013-05-25 15:00:00,
2013-05-25 11:05:00,62.5,39.7,30.28,East,82,2.0,2.0,43,0.00,,,0.00,867.00,VWS V14.01,2013-05-25 15:05:00,
2013-05-25 11:10:00,63.2,39.8,30.29,North,9,2.0,2.0,42,0.00,,,0.00,870.00,VWS V14.01,2013-05-25 15:10:00,
2013-05-25 11:15:00,63.8,39.0,30.29,WSW,246,3.0,6.0,40,0.00,,,0.00,884.00,VWS V14.01,2013-05-25 15:15:00,
2013-05-25 11:20:00,64.0,39.8,30.29,SW,218,3.0,4.0,41,0.00,,,0.00,928.00,VWS V14.01,2013-05-25 15:20:00,
2013-05-25 11:25:00,64.5,40.3,30.28,SSW,193,5.0,5.0,41,0.00,,,0.00,854.00,VWS V14.01,2013-05-25 15:25:00,
2013-05-25 11:30:00,65.0,40.1,30.29,NNE,16,3.0,3.0,40,0.00,,,0.00,911.00,VWS V14.01,2013-05-25 15:30:00,
2013-05-25 11:35:00,65.5,41.2,30.28,NNE,19,2.0,2.0,41,0.00,,,0.00,888.00,VWS V14.01,2013-05-25 15:35:00,
2013-05-25 11:40:00,65.8,42.1,30.28,NW,306,2.0,2.0,42,0.00,,,0.00,912.00,VWS V14.01,2013-05-25 15:40:00,
2013-05-25 11:45:00,66.1,41.7,30.27,SW,214,0.0,1.0,41,0.00,,,0.00,914.00,VWS V14.01,2013-05-25 15:45:00,
2013-05-25 11:50:00,66.6,42.2,30.26,ESE,121,0.0,0.0,41,0.00,,,0.00,926.00,VWS V14.01,2013-05-25 15:50:00,
2013-05-25 11:55:00,67.4,42.3,30.26,WNW,284,1.0,1.0,40,0.00,,,0.00,937.00,VWS V14.01,2013-05-25 15:55:00,
2013-05-25 12:00:00,67.8,42.0,30.26,NW,304,1.0,1.0,39,0.00,,,0.00,940.00,VWS V14.01,2013-05-25 16:00:00,
2013-05-25 12:05:00,68.1,42.9,30.26,WSW,254,3.0,3.0,40,0.00,,,0.00,947.00,VWS V14.01,2013-05-25 16:05:00,
2013-05-25 12:09:00,68.3,41.0,30.26,NNW,335,1.0,2.0,37,0.00,,,0.00,953.00,VWS V14.01,2013-05-25 16:09:00,
2013-05-25 12:14:00,68.8,42.2,30.26,SSW,212,3.0,5.0,38,0.00,,,0.00,963.00,VWS V14.01,2013-05-25 16:14:00,
2013-05-25 12:19:00,69.2,40.4,30.25,NE,44,3.0,3.0,35,0.00,,,0.00,940.00,VWS V14.01,2013-05-25 16:19:00,
2013-05-25 12:24:00,69.1,40.3,30.25,NNW,348,5.0,5.0,35,0.00,,,0.00,953.00,VWS V14.01,2013-05-25 16:24:00,
2013-05-25 12:29:00,69.1,41.0,30.25,SSE,163,4.0,5.0,36,0.00,,,0.00,974.00,VWS V14.01,2013-05-25 16:29:00,
2013-05-25 12:34:00,69.3,39.8,30.24,NNE,24,0.0,0.0,34,0.00,,,0.00,1014.00,VWS V14.01,2013-05-25 16:34:00,
2013-05-25 12:39:00,69.9,40.3,30.25,WNW,286,1.0,1.0,34,0.00,,,0.00,988.00,VWS V14.01,2013-05-25 16:39:00,
2013-05-25 12:44:00,70.2,39.0,30.24,WSW,252,5.0,5.0,32,0.00,,,0.00,997.00,VWS V14.01,2013-05-25 16:44:00,
2013-05-25 12:49:00,70.5,40.0,30.25,SW,223,3.0,3.0,33,0.00,,,0.00,988.00,VWS V14.01,2013-05-25 16:49:00,
2013-05-25 12:54:00,70.5,38.4,30.25,South,190,3.0,3.0,31,0.00,,,0.00,990.00,VWS V14.01,2013-05-25 16:54:00,
2013-05-25 12:59:00,70.8,38.7,30.24,SSW,200,4.0,4.0,31,0.00,,,0.00,990.00,VWS V14.01,2013-05-25 16:59:00,
2013-05-25 13:04:00,70.9,39.6,30.24,WSW,257,3.0,3.0,32,0.00,,,0.00,998.00,VWS V14.01,2013-05-25 17:04:00,
2013-05-25 13:09:00,71.3,36.5,30.23,West,267,4.0,4.0,28,0.00,,,0.00,1002.00,VWS V14.01,2013-05-25 17:09:00,
2013-05-25 13:14:00,71.1,36.4,30.23,NNE,13,4.0,5.0,28,0.00,,,0.00,1000.00,VWS V14.01,2013-05-25 17:14:00,
2013-05-25 13:19:00,70.7,37.8,30.23,NNE,15,1.0,4.0,30,0.00,,,0.00,990.00,VWS V14.01,2013-05-25 17:19:00,
2013-05-25 13:24:00,71.7,38.6,30.23,NNE,25,1.0,2.0,30,0.00,,,0.00,1004.00,VWS V14.01,2013-05-25 17:24:00,
2013-05-25 13:29:00,72.2,38.2,30.23,SSE,157,0.0,3.0,29,0.00,,,0.00,1007.00,VWS V14.01,2013-05-25 17:29:00,
2013-05-25 13:34:00,73.6,39.4,30.22,SSW,201,1.0,1.0,29,0.00,,,0.00,1000.00,VWS V14.01,2013-05-25 17:34:00,
2013-05-25 13:39:00,73.5,40.2,30.22,ESE,115,1.0,4.0,30,0.00,,,0.00,1000.00,VWS V14.01,2013-05-25 17:39:00,
2013-05-25 13:44:00,73.4,38.3,30.22,SSW,205,2.0,3.0,28,0.00,,,0.00,995.00,VWS V14.01,2013-05-25 17:44:00,
2013-05-25 13:49:00,73.2,38.2,30.21,SSE,150,1.0,3.0,28,0.00,,,0.00,993.00,VWS V14.01,2013-05-25 17:49:00,
2013-05-25 13:54:00,73.7,41.2,30.21,NNW,329,3.0,4.0,31,0.00,,,0.00,1000.00,VWS V14.01,2013-05-25 17:54:00,
2013-05-25 13:59:00,73.8,41.3,30.21,NNW,333,0.0,2.0,31,0.00,,,0.00,1016.00,VWS V14.01,2013-05-25 17:59:00,
2013-05-25 14:04:00,74.1,40.7,30.21,WSW,249,0.0,3.0,30,0.00,,,0.00,998.00,VWS V14.01,2013-05-25 18:04:00,
2013-05-25 14:09:00,74.7,39.5,30.21,SSW,209,1.0,6.0,28,0.00,,,0.00,958.00,VWS V14.01,2013-05-25 18:09:00,
2013-05-25 14:14:00,74.8,41.3,30.20,South,190,1.0,2.0,30,0.00,,,0.00,1060.00,VWS V14.01,2013-05-25 18:14:00,
2013-05-25 14:19:00,73.9,40.5,30.19,SW,236,1.0,3.0,30,0.00,,,0.00,643.00,VWS V14.01,2013-05-25 18:19:00,
2013-05-25 14:24:00,72.8,40.4,30.19,SE,140,2.0,3.0,31,0.00,,,0.00,991.00,VWS V14.01,2013-05-25 18:24:00,
2013-05-25 14:29:00,73.0,38.9,30.20,WSW,238,2.0,4.0,29,0.00,,,0.00,598.00,VWS V14.01,2013-05-25 18:29:00,
2013-05-25 14:34:00,72.7,39.5,30.19,NW,319,0.0,3.0,30,0.00,,,0.00,1055.00,VWS V14.01,2013-05-25 18:34:00,
2013-05-25 14:39:00,72.4,40.1,30.19,SSW,199,4.0,8.0,31,0.00,,,0.00,953.00,VWS V14.01,2013-05-25 18:39:00,
2013-05-25 14:44:00,73.3,43.3,30.18,WNW,290,1.0,3.0,34,0.00,,,0.00,947.00,VWS V14.01,2013-05-25 18:44:00,
2013-05-25 14:49:00,73.5,41.0,30.18,NNW,328,1.0,5.0,31,0.00,,,0.00,935.00,VWS V14.01,2013-05-25 18:49:00,
2013-05-25 14:54:00,73.3,39.2,30.18,SSW,207,0.0,2.0,29,0.00,,,0.00,933.00,VWS V14.01,2013-05-25 18:54:00,
2013-05-25 14:59:00,73.7,42.0,30.18,West,273,0.0,3.0,32,0.00,,,0.00,928.00,VWS V14.01,2013-05-25 18:59:00,
2013-05-25 15:04:00,73.0,40.6,30.18,SSW,211,3.0,3.0,31,0.00,,,0.00,925.00,VWS V14.01,2013-05-25 19:04:00,
2013-05-25 15:09:00,73.7,40.4,30.18,SW,230,4.0,6.0,30,0.00,,,0.00,907.00,VWS V14.01,2013-05-25 19:09:00,
2013-05-25 15:14:00,73.5,41.0,30.18,SW,224,1.0,3.0,31,0.00,,,0.00,907.00,VWS V14.01,2013-05-25 19:14:00,
2013-05-25 15:19:00,75.0,41.5,30.17,SE,134,0.0,4.0,30,0.00,,,0.00,881.00,VWS V14.01,2013-05-25 19:19:00,
2013-05-25 15:24:00,75.1,41.6,30.17,NNW,333,2.0,5.0,30,0.00,,,0.00,893.00,VWS V14.01,2013-05-25 19:24:00,
2013-05-25 15:29:00,74.3,40.0,30.17,SSE,155,1.0,2.0,29,0.00,,,0.00,860.00,VWS V14.01,2013-05-25 19:29:00,
2013-05-25 15:34:00,74.2,40.8,30.17,NW,321,0.0,1.0,30,0.00,,,0.00,851.00,VWS V14.01,2013-05-25 19:34:00,
2013-05-25 15:39:00,74.9,42.3,30.17,North,360,1.0,3.0,31,0.00,,,0.00,856.00,VWS V14.01,2013-05-25 19:39:00,
2013-05-25 15:44:00,76.0,41.5,30.17,NW,304,3.0,3.0,29,0.00,,,0.00,795.00,VWS V14.01,2013-05-25 19:44:00,
2013-05-25 15:49:00,75.8,42.2,30.17,WSW,251,4.0,11.0,30,0.00,,,0.00,816.00,VWS V14.01,2013-05-25 19:49:00,
2013-05-25 15:54:00,75.1,41.6,30.16,SSW,211,2.0,4.0,30,0.00,,,0.00,823.00,VWS V14.01,2013-05-25 19:54:00,
2013-05-25 15:59:00,75.1,41.6,30.16,SSW,211,7.0,7.0,30,0.00,,,0.00,798.00,VWS V14.01,2013-05-25 19:59:00,
2013-05-25 16:04:00,75.4,42.7,30.16,NNW,338,2.0,3.0,31,0.00,,,0.00,791.00,VWS V14.01,2013-05-25 20:04:00,
2013-05-25 16:09:00,75.6,42.0,30.15,SSW,205,1.0,2.0,30,0.00,,,0.00,773.00,VWS V14.01,2013-05-25 20:09:00,
2013-05-25 16:14:00,76.3,43.5,30.15,SSW,213,1.0,2.0,31,0.00,,,0.00,708.00,VWS V14.01,2013-05-25 20:14:00,
2013-05-25 16:19:00,76.2,43.4,30.15,SW,227,3.0,6.0,31,0.00,,,0.00,744.00,VWS V14.01,2013-05-25 20:19:00,
2013-05-25 16:24:00,75.6,41.1,30.15,NW,312,4.0,6.0,29,0.00,,,0.00,701.00,VWS V14.01,2013-05-25 20:24:00,
2013-05-25 16:29:00,76.0,41.5,30.15,ESE,121,1.0,3.0,29,0.00,,,0.00,575.00,VWS V14.01,2013-05-25 20:29:00,
2013-05-25 16:34:00,76.0,40.6,30.15,North,349,0.0,2.0,28,0.00,,,0.00,619.00,VWS V14.01,2013-05-25 20:34:00,
2013-05-25 16:39:00,76.0,41.5,30.15,WSW,243,3.0,3.0,29,0.00,,,0.00,608.00,VWS V14.01,2013-05-25 20:39:00,
2013-05-25 16:44:00,76.1,42.5,30.15,NE,43,0.0,1.0,30,0.00,,,0.00,436.00,VWS V14.01,2013-05-25 20:44:00,
2013-05-25 16:49:00,75.8,41.3,30.15,NW,322,2.0,2.0,29,0.00,,,0.00,570.00,VWS V14.01,2013-05-25 20:49:00,
2013-05-25 16:54:00,76.2,43.4,30.15,NNE,28,3.0,4.0,31,0.00,,,0.00,613.00,VWS V14.01,2013-05-25 20:54:00,
2013-05-25 16:59:00,76.4,41.8,30.15,WSW,246,1.0,2.0,29,0.00,,,0.00,513.00,VWS V14.01,2013-05-25 20:59:00,
2013-05-25 17:04:00,76.5,41.9,30.15,NW,314,1.0,2.0,29,0.00,,,0.00,381.00,VWS V14.01,2013-05-25 21:04:00,
2013-05-25 17:09:00,76.6,42.0,30.15,SE,138,1.0,4.0,29,0.00,,,0.00,469.00,VWS V14.01,2013-05-25 21:09:00,
2013-05-25 17:14:00,76.4,41.8,30.14,West,265,0.0,1.0,29,0.00,,,0.00,538.00,VWS V14.01,2013-05-25 21:14:00,
2013-05-25 17:19:00,76.4,42.7,30.14,NW,308,0.0,2.0,30,0.00,,,0.00,529.00,VWS V14.01,2013-05-25 21:19:00,
2013-05-25 17:24:00,76.4,43.6,30.14,North,351,0.0,3.0,31,0.00,,,0.00,448.00,VWS V14.01,2013-05-25 21:24:00,
2013-05-25 17:29:00,76.2,40.8,30.14,NNE,21,3.0,5.0,28,0.00,,,0.00,153.00,VWS V14.01,2013-05-25 21:29:00,
2013-05-25 17:34:00,75.9,41.4,30.14,North,11,1.0,1.0,29,0.00,,,0.00,302.00,VWS V14.01,2013-05-25 21:34:00,
2013-05-25 17:39:00,76.0,40.6,30.14,North,10,3.0,4.0,28,0.00,,,0.00,220.00,VWS V14.01,2013-05-25 21:39:00,
2013-05-25 17:44:00,75.9,41.4,30.14,NNW,345,2.0,2.0,29,0.00,,,0.00,183.00,VWS V14.01,2013-05-25 21:44:00,
2013-05-25 17:49:00,75.9,40.5,30.14,North,5,2.0,3.0,28,0.00,,,0.00,146.00,VWS V14.01,2013-05-25 21:49:00,
2013-05-25 17:54:00,75.9,41.4,30.14,North,360,1.0,3.0,29,0.00,,,0.00,144.00,VWS V14.01,2013-05-25 21:54:00,
2013-05-25 17:59:00,75.9,40.5,30.14,North,360,2.0,4.0,28,0.00,,,0.00,148.00,VWS V14.01,2013-05-25 21:59:00,
2013-05-25 18:04:00,75.7,41.2,30.14,North,360,1.0,3.0,29,0.00,,,0.00,139.00,VWS V14.01,2013-05-25 22:04:00,
2013-05-25 18:09:00,75.3,41.8,30.14,NNE,15,2.0,2.0,30,0.00,,,0.00,132.00,VWS V14.01,2013-05-25 22:09:00,
2013-05-25 18:14:00,75.0,41.5,30.14,SSW,194,1.0,1.0,30,0.00,,,0.00,146.00,VWS V14.01,2013-05-25 22:14:00,
2013-05-25 18:19:00,74.8,42.2,30.14,SSW,197,1.0,2.0,31,0.00,,,0.00,130.00,VWS V14.01,2013-05-25 22:19:00,
2013-05-25 18:24:00,74.7,40.4,30.13,WNW,297,0.0,2.0,29,0.00,,,0.00,84.00,VWS V14.01,2013-05-25 22:24:00,
2013-05-25 18:29:00,74.5,37.4,30.14,SSW,201,5.0,6.0,26,0.00,,,0.00,63.00,VWS V14.01,2013-05-25 22:29:00,
2013-05-25 18:34:00,74.3,38.2,30.14,South,180,0.0,0.0,27,0.00,,,0.00,58.00,VWS V14.01,2013-05-25 22:34:00,
2013-05-25 18:39:00,74.3,39.1,30.14,WSW,246,2.0,3.0,28,0.00,,,0.00,51.00,VWS V14.01,2013-05-25 22:39:00,
2013-05-25 18:44:00,74.2,39.0,30.13,WSW,238,2.0,2.0,28,0.00,,,0.00,49.00,VWS V14.01,2013-05-25 22:44:00,
2013-05-25 18:49:00,74.1,38.0,30.13,WSW,253,0.0,2.0,27,0.00,,,0.00,46.00,VWS V14.01,2013-05-25 22:49:00,
2013-05-25 18:54:00,73.9,37.8,30.14,NW,322,2.0,5.0,27,0.00,,,0.00,70.00,VWS V14.01,2013-05-25 22:54:00,
2013-05-25 18:59:00,73.8,34.8,30.14,North,5,4.0,4.0,24,0.00,,,0.00,70.00,VWS V14.01,2013-05-25 22:59:00,
2013-05-25 19:04:00,73.6,35.6,30.14,North,5,0.0,2.0,25,0.00,,,0.00,40.00,VWS V14.01,2013-05-25 23:04:00,
2013-05-25 19:09:00,73.4,36.5,30.14,West,275,0.0,0.0,26,0.00,,,0.00,67.00,VWS V14.01,2013-05-25 23:09:00,
2013-05-25 19:14:00,73.2,39.1,30.14,West,275,0.0,0.0,29,0.00,,,0.00,76.00,VWS V14.01,2013-05-25 23:14:00,
2013-05-25 19:19:00,73.1,41.5,30.14,West,275,0.0,1.0,32,0.00,,,0.00,62.00,VWS V14.01,2013-05-25 23:19:00,
2013-05-25 19:24:00,72.9,38.8,30.14,West,275,0.0,0.0,29,0.00,,,0.00,49.00,VWS V14.01,2013-05-25 23:24:00,
2013-05-25 19:29:00,72.8,43.6,30.14,West,275,0.0,0.0,35,0.00,,,0.00,46.00,VWS V14.01,2013-05-25 23:29:00,
2013-05-25 19:34:00,72.6,42.7,30.14,West,275,0.0,0.0,34,0.00,,,0.00,39.00,VWS V14.01,2013-05-25 23:34:00,
2013-05-25 19:39:00,72.4,45.4,30.14,West,275,0.0,0.0,38,0.00,,,0.00,32.00,VWS V14.01,2013-05-25 23:39:00,
2013-05-25 19:44:00,72.1,41.4,30.15,West,275,0.0,0.0,33,0.00,,,0.00,21.00,VWS V14.01,2013-05-25 23:44:00,
2013-05-25 19:49:00,71.9,44.2,30.15,West,275,0.0,0.0,37,0.00,,,0.00,18.00,VWS V14.01,2013-05-25 23:49:00,
2013-05-25 19:54:00,71.5,44.6,30.14,West,275,0.0,0.0,38,0.00,,,0.00,21.00,VWS V14.01,2013-05-25 23:54:00,
2013-05-25 19:59:00,70.8,43.3,30.15,West,275,0.0,0.0,37,0.00,,,0.00,19.00,VWS V14.01,2013-05-25 23:59:00,
2013-05-25 20:04:00,70.3,42.8,30.15,West,275,0.0,0.0,37,0.00,,,0.00,18.00,VWS V14.01,2013-05-26 00:04:00,
2013-05-25 20:09:00,70.0,42.6,30.15,West,275,0.0,0.0,37,0.00,,,0.00,14.00,VWS V14.01,2013-05-26 00:09:00,
2013-05-25 20:14:00,69.5,42.1,30.15,West,275,0.0,0.0,37,0.00,,,0.00,11.00,VWS V14.01,2013-05-26 00:14:00,
2013-05-25 20:19:00,68.9,42.3,30.15,West,275,0.0,0.0,38,0.00,,,0.00,9.00,VWS V14.01,2013-05-26 00:19:00,
2013-05-25 20:24:00,68.4,42.5,30.15,West,275,0.0,0.0,39,0.00,,,0.00,5.00,VWS V14.01,2013-05-26 00:24:00,
2013-05-25 20:29:00,68.1,42.9,30.15,West,275,0.0,0.0,40,0.00,,,0.00,0.00,VWS V14.01,2013-05-26 00:29:00,
2013-05-25 20:34:00,67.6,43.7,30.15,West,275,0.0,0.0,42,0.00,,,0.00,0.00,VWS V14.01,2013-05-26 00:34:00,
2013-05-25 20:39:00,67.1,43.3,30.15,West,275,0.0,0.0,42,0.00,,,0.00,0.00,VWS V14.01,2013-05-26 00:39:00,
2013-05-25 20:44:00,66.7,42.9,30.15,West,275,0.0,0.0,42,0.00,,,0.00,0.00,VWS V14.01,2013-05-26 00:44:00,
2013-05-25 20:49:00,66.2,43.1,30.15,West,275,0.0,0.0,43,0.00,,,0.00,0.00,VWS V14.01,2013-05-26 00:49:00,
2013-05-25 20:54:00,65.7,42.0,30.15,West,275,0.0,0.0,42,0.00,,,0.00,0.00,VWS V14.01,2013-05-26 00:54:00,
2013-05-25 20:59:00,65.3,42.2,30.16,West,275,0.0,0.0,43,0.00,,,0.00,0.00,VWS V14.01,2013-05-26 00:59:00,
2013-05-25 21:04:00,65.0,43.7,30.16,West,275,0.0,0.0,46,0.00,,,0.00,0.00,VWS V14.01,2013-05-26 01:04:00,
2013-05-25 21:09:00,64.7,45.1,30.16,West,275,0.0,0.0,49,0.00,,,0.00,0.00,VWS V14.01,2013-05-26 01:09:00,
2013-05-25 21:14:00,64.3,46.3,30.16,West,275,0.0,0.0,52,0.00,,,0.00,0.00,VWS V14.01,2013-05-26 01:14:00,
2013-05-25 21:19:00,63.8,47.3,30.16,West,275,0.0,0.0,55,0.00,,,0.00,0.00,VWS V14.01,2013-05-26 01:19:00,
2013-05-25 21:24:00,63.3,46.9,30.16,West,275,0.0,0.0,55,0.00,,,0.00,0.00,VWS V14.01,2013-05-26 01:24:00,
2013-05-25 21:29:00,62.8,44.4,30.17,West,275,0.0,0.0,51,0.00,,,0.00,0.00,VWS V14.01,2013-05-26 01:29:00,
2013-05-25 21:34:00,62.2,42.8,30.17,West,275,0.0,0.0,49,0.00,,,0.00,0.00,VWS V14.01,2013-05-26 01:34:00,
2013-05-25 21:39:00,61.7,42.9,30.17,West,275,0.0,0.0,50,0.00,,,0.00,0.00,VWS V14.01,2013-05-26 01:39:00,
2013-05-25 21:44:00,61.4,42.1,30.17,West,275,0.0,0.0,49,0.00,,,0.00,0.00,VWS V14.01,2013-05-26 01:44:00,
2013-05-25 21:49:00,61.1,43.4,30.17,West,275,0.0,0.0,52,0.00,,,0.00,0.00,VWS V14.01,2013-05-26 01:49:00,
2013-05-25 21:54:00,60.8,45.0,30.18,West,275,0.0,0.0,56,0.00,,,0.00,0.00,VWS V14.01,2013-05-26 01:54:00,
2013-05-25 21:59:00,60.4,45.6,30.18,West,275,0.0,0.0,58,0.00,,,0.00,0.00,VWS V14.01,2013-05-26 01:59:00,
2013-05-25 22:04:00,60.1,46.2,30.18,West,275,0.0,0.0,60,0.00,,,0.00,0.00,VWS V14.01,2013-05-26 02:04:00,
2013-05-25 22:09:00,59.7,47.1,30.18,West,275,0.0,0.0,63,0.00,,,0.00,0.00,VWS V14.01,2013-05-26 02:09:00,
2013-05-25 22:14:00,59.3,47.1,30.18,West,275,0.0,0.0,64,0.00,,,0.00,0.00,VWS V14.01,2013-05-26 02:14:00,
2013-05-25 22:19:00,58.7,46.6,30.18,West,275,0.0,0.0,64,0.00,,,0.00,0.00,VWS V14.01,2013-05-26 02:19:00,
2013-05-25 22:24:00,58.2,45.3,30.18,West,275,0.0,0.0,62,0.00,,,0.00,0.00,VWS V14.01,2013-05-26 02:24:00,
2013-05-25 22:29:00,57.9,44.1,30.18,West,275,0.0,0.0,60,0.00,,,0.00,0.00,VWS V14.01,2013-05-26 02:29:00,
2013-05-25 22:34:00,57.6,43.8,30.18,West,275,0.0,0.0,60,0.00,,,0.00,0.00,VWS V14.01,2013-05-26 02:34:00,
2013-05-25 22:39:00,57.4,44.5,30.18,West,275,0.0,0.0,62,0.00,,,0.00,0.00,VWS V14.01,2013-05-26 02:39:00,
2013-05-25 22:44:00,57.1,44.6,30.18,West,275,0.0,0.0,63,0.00,,,0.00,0.00,VWS V14.01,2013-05-26 02:44:00,
2013-05-25 22:49:00,56.8,44.3,30.19,West,275,0.0,0.0,63,0.00,,,0.00,0.00,VWS V14.01,2013-05-26 02:49:00,
2013-05-25 22:54:00,56.4,44.0,30.19,West,275,0.0,0.0,63,0.00,,,0.00,0.00,VWS V14.01,2013-05-26 02:54:00,
2013-05-25 22:59:00,56.1,43.3,30.19,West,275,0.0,0.0,62,0.00,,,0.00,0.00,VWS V14.01,2013-05-26 02:59:00,
2013-05-25 23:04:00,55.8,43.0,30.18,West,275,0.0,0.0,62,0.00,,,0.00,0.00,VWS V14.01,2013-05-26 03:04:00,
2013-05-25 23:09:00,55.6,44.0,30.18,West,275,0.0,0.0,65,0.00,,,0.00,0.00,VWS V14.01,2013-05-26 03:09:00,
2013-05-25 23:14:00,55.4,45.4,30.19,West,275,0.0,0.0,69,0.00,,,0.00,0.00,VWS V14.01,2013-05-26 03:14:00,
2013-05-25 23:19:00,55.2,46.3,30.19,West,275,0.0,0.0,72,0.00,,,0.00,0.00,VWS V14.01,2013-05-26 03:19:00,
2013-05-25 23:24:00,54.9,46.8,30.19,West,275,0.0,0.0,74,0.00,,,0.00,0.00,VWS V14.01,2013-05-26 03:24:00,
2013-05-25 23:29:00,54.6,46.8,30.19,West,275,0.0,0.0,75,0.00,,,0.00,0.00,VWS V14.01,2013-05-26 03:29:00,
2013-05-25 23:34:00,54.4,45.9,30.19,West,275,0.0,0.0,73,0.00,,,0.00,0.00,VWS V14.01,2013-05-26 03:34:00,
2013-05-25 23:39:00,54.3,44.7,30.19,West,275,0.0,0.0,70,0.00,,,0.00,0.00,VWS V14.01,2013-05-26 03:39:00,
2013-05-25 23:44:00,54.1,45.7,30.19,West,275,0.0,0.0,73,0.00,,,0.00,0.00,VWS V14.01,2013-05-26 03:44:00,
2013-05-25 23:49:00,54.0,45.9,30.19,West,275,0.0,0.0,74,0.00,,,0.00,0.00,VWS V14.01,2013-05-26 03:49:00,
2013-05-25 23:54:00,53.9,46.2,30.20,West,275,0.0,0.0,75,0.00,,,0.00,0.00,VWS V14.01,2013-05-26 03:54:00,
2013-05-25 23:59:00,53.8,46.4,30.20,West,275,0.0,0.0,76,0.00,,,0.00,0.00,VWS V14.01,2013-05-26 03:59:00,